DMSP 5D-3 F16 (USA 172)

Last updated on Thu Jul 03 2025 00:02:22 GMT+0000 (Coordinated Universal Time)

1 28054U 03048A 25183.58029630 -.00000010 00000+0 18700-4 0 9997 2 28054 99.0120 199.6227 0008213 61.3477 49.8882 14.14359068120047
UTC large
Height (km)
Speed (km/s)
/
Latitude / Longitude
Inclination (degrees)
Orbital Period (minutes)
Azimuth
Elevation
Range (km)
Doppler Factor

Next 0 passes for location: London (51.5072 / 0.1276)

Sorry there are no passes over London.